Hourly Data Report for May 08, 2019

MIRAMICHI RCS
NEW BRUNSWICK
Current Station Operator: ECCC - MSC

47°00'34.000" N
65°27'54.000" W
33.00 m
8100989
71744
ACQ

Download Data

Hourly Data (May 2019)
Hourly Data Report for May 8, 2019
TIME
LST
Temp Definition
°C
Dew Point Definition
°C
Rel Hum Definition
%
Precip. Amount Definition
mm

Wind Dir Definition
10's deg

Wind Spd Definition
km/h
Visibility Definition
km
Stn Press Definition
kPa
Hmdx Definition


Wind Chill Definition


Weather Definition


00:00 5.2 2.4 82 0.0 30 5   101.23     LegendNANA
01:00 4.0 1.0 81 0.0 30 7   101.24     LegendNANA
02:00 3.7 0.1 77 0.0 29 13   101.27     LegendNANA
03:00 2.8 -1.2 75 0.0 29 14   101.30     LegendNANA
04:00 1.7 -1.5 79 0.0 29 12   101.33     LegendNANA
05:00 1.4 -2.0 78 0.0 29 13   101.35     LegendNANA
06:00 2.0 -1.9 75 0.0 29 12   101.37     LegendNANA
07:00 3.4 -2.1 68 0.0 29 17   101.38     LegendNANA
08:00 5.1 -2.3 59 0.0 30 21   101.39     LegendNANA
09:00 6.7 -2.8 51 0.0 30 16   101.37     LegendNANA
10:00 7.8 -3.2 46 0.0 30 22   101.35     LegendNANA
11:00 9.4 -2.3 44 0.0 30 17   101.36     LegendNANA
12:00 10.5 -1.9 42 0.0 31 20   101.34     LegendNANA
13:00 11.0 -2.6 38 0.0 33 19   101.30     LegendNANA
14:00 11.3 -2.3 39 0.0 33 15   101.30     LegendNANA
15:00 11.4 -2.5 38 0.0 30 24   101.29     LegendNANA
16:00 11.1 -3.1 37 0.0 32 17   101.34     LegendNANA
17:00 10.6 -3.0 38 0.0 32 20   101.41     LegendNANA
18:00 9.4 -3.9 39 0.0 30 23   101.47     LegendNANA
19:00 8.2 -4.6 40 0.0 31 20   101.57     LegendNANA
20:00 6.7 -4.8 44 0.0 31 16   101.65     LegendNANA
21:00 5.1 -4.1 51 0.0 28 10   101.69     LegendNANA
22:00 4.5 -4.1 53 0.0 28 10   101.69     LegendNANA
23:00 3.3 -3.9 59 0.0 26 8   101.68     LegendNANA

Notes on Data Quality.

Legend

  • E = Estimated
  • M = Missing
  • NA = Not Available*
  • [empty] = Indicates an unobserved value
Date modified: